QPF
0.01 0.02 0.05 0.07 0.09 0.10 0.10 0.12 0.11 0.11 0.11 0.13 0.12 0.14 0.16 0.13 0.11 0.09 0.08 0.11 0.11 0.09 0.08 0.08 0.09 0.08 0.07 0.06 0.06 0.06 0.07 0.08 0.10 0.09 0.10 0.09 0.09 0.08 0.08 0.05 0.06 0.08 0.12
0.01 0.01 0.03 0.05 0.06 0.07 0.07 0.07 0.08 0.11 0.10 0.11 0.11 0.10 0.15 0.15 0.11 0.11 0.11 0.11 0.09 0.08 0.07 0.05 0.06 0.07 0.08 0.08 0.08 0.09 0.06 0.04 0.06 0.07 0.09 0.09 0.09 0.09 0.10 0.06 0.05 0.08 0.12
0.01 0.01 0.01 0.03 0.05 0.05 0.05 0.06 0.06 0.08 0.10 0.10 0.09 0.08 0.11 0.13 0.12 0.12 0.12 0.11 0.10 0.09 0.08 0.06 0.07 0.10 0.10 0.09 0.10 0.11 0.07 0.07 0.07 0.08 0.08 0.09 0.10 0.11 0.11 0.09 0.08 0.10 0.11
0.01 0.01 0.01 0.04 0.04 0.05 0.05 0.05 0.05 0.05 0.07 0.08 0.07 0.08 0.09 0.11 0.13 0.15 0.14 0.13 0.12 0.11 0.09 0.08 0.10 0.11 0.10 0.08 0.09 0.09 0.08 0.09 0.08 0.08 0.06 0.07 0.12 0.13 0.10 0.09 0.09 0.10 0.10
0.01 0.01 0.02 0.03 0.05 0.06 0.05 0.05 0.05 0.05 0.07 0.06 0.06 0.08 0.11 0.17 0.23 0.19 0.13 0.11 0.12 0.11 0.08 0.08 0.08 0.09 0.09 0.08 0.08 0.09 0.06 0.05 0.05 0.05 0.05 0.08 0.13 0.15 0.11 0.08 0.08 0.09 0.09
0.01 0.01 0.03 0.05 0.05 0.07 0.06 0.06 0.06 0.06 0.08 0.08 0.06 0.09 0.14 0.31 0.22 0.15 0.14 0.09 0.10 0.09 0.09 0.09 0.09 0.09 0.10 0.09 0.08 0.07 0.04 0.04 0.03 0.04 0.06 0.09 0.11 0.14 0.14 0.12 0.09 0.08 0.08
0.01 0.01 0.02 0.04 0.06 0.06 0.06 0.04 0.03 0.04 0.06 0.07 0.07 0.10 0.17 0.31 0.23 0.13 0.11 0.07 0.08 0.08 0.08 0.09 0.10 0.11 0.10 0.08 0.08 0.06 0.03 0.02 0.03 0.05 0.08 0.10 0.13 0.14 0.15 0.13 0.08 0.07 0.07
0.01 0.01 0.01 0.03 0.06 0.05 0.04 0.04 0.04 0.05 0.04 0.04 0.07 0.09 0.15 0.23 0.20 0.13 0.08 0.07 0.07 0.09 0.10 0.10 0.09 0.09 0.09 0.07 0.06 0.03 0.02 0.02 0.02 0.03 0.06 0.11 0.12 0.12 0.14 0.11 0.08 0.07 0.08
0.01 0.01 0.01 0.03 0.04 0.04 0.03 0.04 0.05 0.05 0.03 0.04 0.06 0.08 0.10 0.13 0.12 0.09 0.09 0.09 0.08 0.09 0.10 0.09 0.08 0.06 0.07 0.07 0.05 0.03 0.03 0.04 0.03 0.04 0.03 0.08 0.10 0.12 0.12 0.09 0.07 0.07 0.08
0.01 0.01 0.01 0.02 0.03 0.05 0.05 0.04 0.04 0.03 0.03 0.03 0.04 0.06 0.06 0.09 0.10 0.09 0.10 0.11 0.10 0.09 0.09 0.08 0.07 0.06 0.07 0.06 0.03 0.03 0.05 0.09 0.10 0.05 0.04 0.06 0.10 0.10 0.08 0.06 0.05 0.06 0.06
0.04 0.01 0.01 0.01 0.01 0.02 0.03 0.03 0.03 0.02 0.02 0.02 0.02 0.05 0.06 0.07 0.10 0.10 0.10 0.11 0.11 0.10 0.09 0.08 0.08 0.09 0.08 0.05 0.03 0.03 0.05 0.13 0.19 0.07 0.07 0.10 0.11 0.09 0.08 0.06 0.06 0.06 0.05
0.03 0.02 0.01 0.00 0.00 0.00 0.01 0.01 0.01 0.01 0.01 0.01 0.01 0.04 0.07 0.07 0.08 0.09 0.11 0.11 0.12 0.10 0.08 0.08 0.08 0.07 0.06 0.03 0.02 0.03 0.07 0.15 0.27 0.15 0.11 0.14 0.14 0.11 0.07 0.07 0.08 0.08 0.06
0.01 0.01 0.02 0.01 0.00 0.00 0.01 0.00 0.00 0.01 0.01 0.01 0.01 0.02 0.05 0.07 0.07 0.07 0.11 0.13 0.16 0.14 0.10 0.08 0.05 0.04 0.04 0.03 0.03 0.03 0.06 0.12 0.23 0.18 0.11 0.12 0.13 0.11 0.09 0.08 0.10 0.12 0.10
0.00 0.00 0.00 0.00 0.00 0.00 0.00 0.00 0.01 0.01 0.01 0.01 0.01 0.01 0.02 0.05 0.07 0.07 0.08 0.08 0.09 0.09 0.07 0.06 0.05 0.03 0.03 0.04 0.04 0.05 0.06 0.08 0.13 0.12 0.09 0.10 0.10 0.12 0.09 0.07 0.09 0.10 0.08
0.01 0.00 0.00 0.00 0.01 0.00 0.00 0.00 0.00 0.01 0.01 0.01 0.00 0.00 0.01 0.02 0.04 0.06 0.08 0.07 0.06 0.06 0.05 0.05 0.03 0.02 0.03 0.04 0.04 0.05 0.06 0.06 0.07 0.05 0.05 0.07 0.08 0.11 0.10 0.08 0.10 0.10 0.08
0.01 0.00 0.00 0.01 0.01 0.01 0.00 0.00 0.00 0.00 0.00 0.01 0.00 0.00 0.00 0.01 0.03 0.04 0.06 0.06 0.05 0.05 0.05 0.04 0.02 0.02 0.03 0.03 0.03 0.03 0.04 0.05 0.05 0.04 0.05 0.06 0.07 0.12 0.14 0.12 0.14 0.14 0.12
0.01 0.01 0.01 0.01 0.01 0.01 0.01 0.00 0.00 0.01 0.01 0.01 0.01 0.00 0.00 0.01 0.02 0.02 0.03 0.04 0.03 0.03 0.03 0.03 0.03 0.03 0.04 0.05 0.04 0.04 0.05 0.05 0.04 0.03 0.04 0.04 0.05 0.11 0.15 0.18 0.26 0.21 0.16
0.00 0.01 0.01 0.01 0.01 0.00 0.00 0.00 0.01 0.01 0.01 0.01 0.01 0.01 0.02 0.01 0.02 0.02 0.02 0.03 0.02 0.03 0.03 0.02 0.02 0.03 0.03 0.05 0.08 0.08 0.08 0.06 0.04 0.03 0.03 0.02 0.03 0.05 0.07 0.13 0.24 0.20 0.11
0.00 0.00 0.01 0.00 0.00 0.00 0.00 0.00 0.01 0.02 0.02 0.01 0.01 0.01 0.02 0.02 0.03 0.02 0.01 0.01 0.01 0.02 0.04 0.04 0.03 0.02 0.03 0.04 0.05 0.06 0.07 0.06 0.05 0.03 0.02 0.02 0.03 0.03 0.04 0.06 0.13 0.14 0.09
0.00 0.00 0.00 0.00 0.00 0.00 0.00 0.00 0.01 0.02 0.01 0.01 0.01 0.01 0.02 0.01 0.03 0.02 0.02 0.02 0.01 0.01 0.02 0.04 0.05 0.06 0.05 0.04 0.03 0.04 0.05 0.04 0.03 0.03 0.03 0.03 0.01 0.01 0.02 0.03 0.07 0.07 0.06
0.01 0.01 0.02 0.02 0.00 0.00 0.00 0.01 0.01 0.01 0.01 0.00 0.00 0.01 0.01 0.01 0.01 0.01 0.01 0.01 0.01 0.02 0.02 0.02 0.03 0.05 0.07 0.07 0.06 0.06 0.05 0.05 0.04 0.02 0.02 0.02 0.02 0.01 0.01 0.02 0.03 0.04 0.03
0.00 0.01 0.03 0.03 0.02 0.01 0.00 0.00 0.01 0.01 0.01 0.00 0.00 0.00 0.01 0.01 0.02 0.01 0.00 0.01 0.01 0.02 0.01 0.01 0.01 0.02 0.03 0.05 0.06 0.07 0.07 0.06 0.05 0.04 0.03 0.03 0.02 0.02 0.01 0.01 0.02 0.02 0.01
0.00 0.01 0.02 0.02 0.04 0.03 0.01 0.00 0.00 0.01 0.01 0.01 0.00 0.00 0.00 0.00 0.01 0.01 0.01 0.01 0.01 0.01 0.01 0.01 0.01 0.02 0.03 0.03 0.04 0.05 0.06 0.07 0.06 0.04 0.03 0.02 0.02 0.02 0.02 0.03 0.02 0.01 0.01
0.01 0.01 0.02 0.02 0.03 0.03 0.02 0.01 0.00 0.01 0.01 0.01 0.01 0.00 0.00 0.00 0.00 0.00 0.01 0.00 0.00 0.01 0.01 0.02 0.01 0.01 0.03 0.03 0.03 0.02 0.03 0.04 0.04 0.04 0.02 0.01 0.01 0.02 0.02 0.03 0.02 0.02 0.01
0.00 0.00 0.01 0.01 0.01 0.03 0.03 0.02 0.03 0.02 0.02 0.01 0.01 0.00 0.00 0.00 0.00 0.00 0.01 0.00 0.00 0.00 0.01 0.01 0.01 0.01 0.02 0.03 0.03 0.03 0.02 0.02 0.02 0.02 0.02 0.02 0.02 0.01 0.01 0.01 0.01 0.01 0.01
0.00 0.00 0.00 0.00 0.00 0.01 0.02 0.01 0.02 0.02 0.02 0.02 0.02 0.01 0.00 0.00 0.00 0.00 0.00 0.00 0.00 0.00 0.00 0.01 0.01 0.01 0.01 0.01 0.02 0.02 0.02 0.02 0.01 0.01 0.02 0.02 0.02 0.02 0.02 0.01 0.01 0.01 0.01
MSLP
1011.90 1011.48 1011.09 1010.76 1010.50 1010.31 1010.17 1010.06 1009.93 1009.79 1009.60 1009.38 1009.15 1008.93 1008.73 1008.58 1008.46 1008.37 1008.29 1008.22 1008.15 1008.08 1008.04 1008.05 1008.13 1008.29 1008.52 1008.80 1009.11 1009.40 1009.66 1009.87 1010.03 1010.16 1010.31 1010.51 1010.75 1011.06 1011.40 1011.75 1012.06 1012.33 1012.54
1012.00 1011.58 1011.17 1010.83 1010.57 1010.38 1010.24 1010.12 1010.00 1009.85 1009.66 1009.45 1009.24 1009.04 1008.87 1008.75 1008.68 1008.63 1008.60 1008.57 1008.54 1008.51 1008.51 1008.54 1008.64 1008.81 1009.04 1009.30 1009.58 1009.83 1010.04 1010.20 1010.33 1010.47 1010.63 1010.86 1011.16 1011.52 1011.92 1012.32 1012.68 1012.96 1013.17
1012.08 1011.65 1011.25 1010.91 1010.65 1010.47 1010.33 1010.22 1010.10 1009.95 1009.76 1009.54 1009.32 1009.13 1008.97 1008.87 1008.82 1008.80 1008.81 1008.82 1008.83 1008.84 1008.88 1008.96 1009.09 1009.27 1009.51 1009.77 1010.01 1010.23 1010.40 1010.54 1010.65 1010.79 1010.98 1011.25 1011.61 1012.03 1012.49 1012.93 1013.32 1013.62 1013.82
1012.12 1011.70 1011.32 1011.00 1010.76 1010.60 1010.49 1010.39 1010.27 1010.12 1009.92 1009.69 1009.46 1009.25 1009.09 1008.98 1008.93 1008.93 1008.96 1009.00 1009.05 1009.12 1009.21 1009.34 1009.52 1009.74 1009.99 1010.25 1010.48 1010.68 1010.82 1010.93 1011.04 1011.18 1011.40 1011.70 1012.10 1012.58 1013.08 1013.55 1013.96 1014.27 1014.47
1012.14 1011.75 1011.40 1011.12 1010.93 1010.80 1010.72 1010.65 1010.54 1010.39 1010.18 1009.94 1009.68 1009.45 1009.27 1009.15 1009.09 1009.09 1009.13 1009.20 1009.30 1009.42 1009.57 1009.76 1009.99 1010.26 1010.54 1010.81 1011.05 1011.23 1011.36 1011.46 1011.55 1011.69 1011.91 1012.23 1012.65 1013.14 1013.67 1014.16 1014.57 1014.88 1015.08
1012.17 1011.82 1011.53 1011.31 1011.17 1011.10 1011.05 1011.00 1010.91 1010.76 1010.55 1010.30 1010.03 1009.78 1009.58 1009.45 1009.38 1009.37 1009.42 1009.52 1009.65 1009.81 1010.02 1010.28 1010.57 1010.89 1011.22 1011.51 1011.76 1011.94 1012.06 1012.14 1012.22 1012.34 1012.54 1012.85 1013.26 1013.74 1014.25 1014.74 1015.15 1015.45 1015.64
1012.26 1011.97 1011.74 1011.59 1011.51 1011.49 1011.49 1011.46 1011.39 1011.25 1011.04 1010.78 1010.52 1010.26 1010.06 1009.92 1009.84 1009.84 1009.90 1010.01 1010.17 1010.37 1010.63 1010.94 1011.30 1011.67 1012.04 1012.37 1012.64 1012.83 1012.94 1013.00 1013.05 1013.13 1013.30 1013.56 1013.93 1014.37 1014.85 1015.31 1015.69 1015.98 1016.16
1012.45 1012.23 1012.07 1011.98 1011.97 1011.99 1012.01 1012.01 1011.95 1011.82 1011.62 1011.38 1011.13 1010.90 1010.71 1010.58 1010.52 1010.52 1010.59 1010.71 1010.89 1011.13 1011.42 1011.77 1012.17 1012.58 1012.99 1013.36 1013.64 1013.84 1013.95 1013.99 1014.01 1014.05 1014.16 1014.36 1014.67 1015.05 1015.47 1015.88 1016.24 1016.50 1016.66
1012.76 1012.61 1012.52 1012.49 1012.52 1012.56 1012.61 1012.61 1012.56 1012.44 1012.27 1012.07 1011.86 1011.67 1011.52 1011.42 1011.39 1011.41 1011.49 1011.62 1011.80 1012.05 1012.36 1012.73 1013.14 1013.59 1014.02 1014.41 1014.71 1014.92 1015.03 1015.06 1015.05 1015.04 1015.09 1015.23 1015.46 1015.78 1016.13 1016.49 1016.81 1017.05 1017.20
1013.16 1013.09 1013.06 1013.08 1013.13 1013.19 1013.23 1013.23 1013.19 1013.09 1012.95 1012.79 1012.64 1012.51 1012.43 1012.39 1012.40 1012.45 1012.54 1012.67 1012.85 1013.09 1013.39 1013.75 1014.17 1014.61 1015.05 1015.44 1015.76 1015.98 1016.09 1016.12 1016.09 1016.06 1016.06 1016.14 1016.30 1016.55 1016.85 1017.16 1017.44 1017.66 1017.80
1013.64 1013.63 1013.65 1013.71 1013.77 1013.83 1013.86 1013.85 1013.80 1013.72 1013.62 1013.52 1013.44 1013.39 1013.38 1013.40 1013.46 1013.55 1013.66 1013.79 1013.96 1014.17 1014.45 1014.78 1015.17 1015.59 1016.01 1016.40 1016.73 1016.95 1017.08 1017.12 1017.09 1017.04 1017.02 1017.05 1017.17 1017.37 1017.62 1017.89 1018.14 1018.35 1018.48
1014.12 1014.17 1014.24 1014.32 1014.39 1014.43 1014.45 1014.43 1014.38 1014.32 1014.26 1014.22 1014.21 1014.23 1014.30 1014.39 1014.51 1014.63 1014.76 1014.90 1015.05 1015.24 1015.47 1015.76 1016.10 1016.48 1016.88 1017.25 1017.57 1017.81 1017.95 1018.01 1018.00 1017.96 1017.94 1017.96 1018.05 1018.21 1018.42 1018.67 1018.91 1019.11 1019.24
1014.56 1014.68 1014.79 1014.89 1014.96 1014.99 1014.99 1014.97 1014.93 1014.89 1014.86 1014.87 1014.93 1015.02 1015.15 1015.31 1015.47 1015.63 1015.79 1015.93 1016.08 1016.24 1016.44 1016.68 1016.97 1017.30 1017.65 1017.99 1018.30 1018.55 1018.72 1018.81 1018.84 1018.83 1018.82 1018.84 1018.92 1019.07 1019.26 1019.49 1019.72 1019.91 1020.05
1014.94 1015.11 1015.26 1015.38 1015.46 1015.49 1015.49 1015.47 1015.44 1015.43 1015.44 1015.50 1015.60 1015.74 1015.92 1016.12 1016.32 1016.52 1016.70 1016.86 1017.01 1017.16 1017.33 1017.54 1017.77 1018.05 1018.36 1018.67 1018.96 1019.21 1019.41 1019.54 1019.61 1019.65 1019.67 1019.71 1019.80 1019.93 1020.11 1020.32 1020.54 1020.73 1020.87
1015.25 1015.47 1015.66 1015.80 1015.89 1015.94 1015.96 1015.96 1015.96 1015.97 1016.01 1016.10 1016.23 1016.40 1016.60 1016.82 1017.06 1017.28 1017.50 1017.69 1017.86 1018.02 1018.18 1018.36 1018.56 1018.80 1019.06 1019.33 1019.61 1019.86 1020.08 1020.25 1020.37 1020.45 1020.51 1020.57 1020.66 1020.79 1020.95 1021.14 1021.35 1021.53 1021.68
1015.50 1015.76 1015.98 1016.15 1016.28 1016.36 1016.41 1016.45 1016.49 1016.54 1016.61 1016.71 1016.85 1017.02 1017.22 1017.45 1017.70 1017.95 1018.19 1018.42 1018.63 1018.83 1019.01 1019.18 1019.37 1019.57 1019.79 1020.04 1020.29 1020.54 1020.78 1020.98 1021.14 1021.26 1021.36 1021.44 1021.53 1021.64 1021.78 1021.95 1022.12 1022.29 1022.44
1015.73 1016.03 1016.28 1016.48 1016.64 1016.77 1016.87 1016.96 1017.05 1017.14 1017.24 1017.36 1017.49 1017.64 1017.82 1018.04 1018.28 1018.55 1018.83 1019.10 1019.36 1019.60 1019.82 1020.01 1020.20 1020.38 1020.58 1020.80 1021.03 1021.28 1021.52 1021.75 1021.94 1022.10 1022.22 1022.31 1022.40 1022.49 1022.59 1022.72 1022.86 1023.01 1023.14
1015.97 1016.29 1016.56 1016.79 1016.99 1017.17 1017.34 1017.50 1017.65 1017.79 1017.93 1018.05 1018.17 1018.29 1018.44 1018.62 1018.85 1019.12 1019.42 1019.74 1020.06 1020.35 1020.61 1020.84 1021.03 1021.21 1021.39 1021.59 1021.81 1022.05 1022.30 1022.54 1022.76 1022.94 1023.07 1023.17 1023.24 1023.31 1023.38 1023.47 1023.57 1023.69 1023.81
1016.23 1016.56 1016.84 1017.10 1017.34 1017.57 1017.81 1018.05 1018.27 1018.47 1018.64 1018.77 1018.88 1018.98 1019.09 1019.23 1019.43 1019.69 1020.00 1020.35 1020.71 1021.06 1021.36 1021.62 1021.83 1022.01 1022.18 1022.36 1022.57 1022.80 1023.05 1023.30 1023.54 1023.73 1023.88 1023.98 1024.05 1024.09 1024.13 1024.18 1024.26 1024.35 1024.44
1016.49 1016.82 1017.12 1017.39 1017.67 1017.96 1018.26 1018.57 1018.87 1019.14 1019.36 1019.51 1019.62 1019.69 1019.76 1019.87 1020.03 1020.27 1020.58 1020.94 1021.32 1021.70 1022.03 1022.31 1022.54 1022.72 1022.88 1023.05 1023.24 1023.46 1023.71 1023.97 1024.22 1024.44 1024.60 1024.71 1024.77 1024.80 1024.82 1024.86 1024.91 1024.99 1025.08
1016.72 1017.07 1017.37 1017.66 1017.96 1018.29 1018.66 1019.04 1019.42 1019.76 1020.03 1020.22 1020.33 1020.40 1020.44 1020.51 1020.64 1020.84 1021.13 1021.48 1021.86 1022.24 1022.59 1022.87 1023.10 1023.27 1023.43 1023.58 1023.76 1023.98 1024.23 1024.50 1024.77 1025.00 1025.18 1025.31 1025.38 1025.42 1025.45 1025.48 1025.54 1025.62 1025.70
1016.89 1017.25 1017.56 1017.86 1018.19 1018.55 1018.97 1019.42 1019.86 1020.27 1020.60 1020.84 1020.99 1021.06 1021.10 1021.14 1021.24 1021.40 1021.65 1021.97 1022.33 1022.68 1023.01 1023.28 1023.50 1023.66 1023.80 1023.94 1024.11 1024.32 1024.58 1024.86 1025.14 1025.39 1025.60 1025.75 1025.86 1025.93 1025.98 1026.04 1026.12 1026.22 1026.32
1016.97 1017.36 1017.69 1018.00 1018.33 1018.72 1019.17 1019.67 1020.17 1020.64 1021.04 1021.34 1021.53 1021.63 1021.68 1021.72 1021.79 1021.92 1022.13 1022.40 1022.71 1023.02 1023.31 1023.55 1023.73 1023.88 1024.00 1024.13 1024.29 1024.50 1024.75 1025.03 1025.33 1025.61 1025.85 1026.04 1026.18 1026.30 1026.41 1026.52 1026.64 1026.78 1026.92
1016.94 1017.37 1017.72 1018.05 1018.40 1018.80 1019.27 1019.79 1020.34 1020.86 1021.32 1021.68 1021.93 1022.08 1022.16 1022.21 1022.27 1022.37 1022.54 1022.76 1023.01 1023.27 1023.51 1023.71 1023.86 1023.98 1024.08 1024.19 1024.34 1024.54 1024.79 1025.08 1025.38 1025.67 1025.94 1026.17 1026.37 1026.54 1026.71 1026.89 1027.08 1027.27 1027.45
1016.81 1017.30 1017.69 1018.04 1018.40 1018.80 1019.27 1019.80 1020.37 1020.93 1021.43 1021.85 1022.16 1022.37 1022.50 1022.58 1022.65 1022.74 1022.88 1023.05 1023.25 1023.46 1023.65 1023.81 1023.93 1024.02 1024.11 1024.21 1024.35 1024.54 1024.77 1025.05 1025.34 1025.64 1025.93 1026.19 1026.44 1026.67 1026.91 1027.16 1027.42 1027.67 1027.91
1016.61 1017.17 1017.61 1017.99 1018.35 1018.75 1019.21 1019.74 1020.30 1020.87 1021.41 1021.87 1022.23 1022.50 1022.68 1022.81 1022.91 1023.01 1023.13 1023.28 1023.45 1023.62 1023.77 1023.90 1024.00 1024.08 1024.15 1024.24 1024.37 1024.54 1024.75 1025.00 1025.28 1025.57 1025.86 1026.14 1026.42 1026.71 1027.01 1027.33 1027.66 1027.98 1028.27
Thickness
5764 5766 5763 5764 5765 5766 5767 5768 5769 5770 5770 5771 5772 5772 5773 5774 5774 5775 5776 5777 5778 5778 5778 5777 5777 5777 5777 5777 5777 5777 5777 5776 5776 5776 5776 5776 5775 5775 5774 5775 5776 5776 5774
5764 5763 5761 5762 5763 5764 5765 5766 5767 5767 5768 5769 5769 5769 5770 5771 5771 5772 5773 5774 5775 5775 5775 5775 5774 5774 5774 5774 5774 5774 5774 5774 5774 5773 5774 5774 5773 5773 5772 5773 5773 5774 5772
5762 5761 5760 5759 5760 5761 5762 5763 5764 5765 5765 5766 5766 5766 5767 5767 5768 5769 5770 5770 5771 5771 5771 5771 5771 5771 5770 5770 5771 5771 5771 5771 5771 5771 5772 5773 5772 5770 5770 5770 5770 5770 5770
5759 5759 5758 5756 5757 5758 5759 5760 5761 5762 5762 5763 5763 5763 5763 5764 5764 5765 5765 5766 5766 5767 5767 5766 5766 5767 5767 5767 5767 5767 5767 5768 5768 5770 5772 5772 5770 5768 5767 5767 5767 5767 5767
5756 5756 5754 5753 5754 5755 5756 5757 5757 5758 5759 5759 5759 5759 5760 5760 5761 5761 5761 5761 5762 5762 5762 5762 5762 5762 5763 5763 5763 5763 5764 5765 5766 5768 5769 5768 5767 5765 5764 5764 5764 5764 5764
5753 5753 5751 5750 5751 5751 5752 5753 5753 5754 5755 5755 5755 5756 5756 5757 5758 5758 5757 5757 5757 5758 5758 5757 5758 5758 5758 5758 5759 5759 5760 5761 5764 5765 5765 5764 5763 5761 5761 5760 5760 5760 5760
5751 5750 5749 5746 5747 5747 5748 5749 5749 5750 5750 5751 5751 5752 5752 5754 5756 5755 5753 5753 5753 5753 5753 5753 5753 5753 5753 5754 5754 5755 5756 5758 5761 5762 5761 5761 5759 5758 5757 5756 5756 5756 5756
5748 5747 5746 5743 5743 5743 5744 5744 5745 5746 5746 5746 5747 5747 5748 5748 5749 5749 5748 5748 5748 5748 5748 5748 5748 5749 5749 5749 5749 5750 5752 5754 5758 5759 5758 5757 5754 5753 5753 5752 5752 5752 5752
5744 5744 5744 5744 5743 5741 5741 5740 5740 5741 5742 5741 5742 5742 5743 5743 5743 5743 5744 5743 5743 5743 5743 5743 5743 5743 5744 5744 5744 5746 5747 5750 5754 5755 5755 5752 5750 5749 5748 5748 5748 5747 5747
5741 5741 5742 5741 5742 5741 5740 5737 5737 5737 5737 5737 5737 5737 5738 5738 5739 5739 5739 5738 5738 5738 5738 5738 5738 5738 5738 5739 5740 5741 5743 5746 5749 5750 5749 5747 5745 5744 5744 5743 5743 5743 5743
5737 5738 5739 5739 5739 5738 5737 5735 5735 5734 5734 5734 5734 5733 5735 5736 5736 5735 5733 5733 5733 5732 5732 5732 5732 5733 5733 5734 5735 5737 5739 5742 5743 5744 5742 5740 5740 5739 5739 5738 5738 5738 5738
5733 5735 5736 5736 5736 5735 5734 5733 5733 5733 5732 5733 5732 5732 5732 5732 5730 5729 5727 5727 5727 5727 5727 5727 5727 5728 5731 5732 5732 5733 5736 5736 5737 5737 5735 5734 5734 5734 5734 5734 5733 5733 5733
5732 5732 5734 5734 5734 5733 5732 5731 5730 5729 5728 5728 5728 5728 5728 5728 5727 5726 5725 5724 5723 5723 5724 5723 5725 5726 5727 5727 5728 5730 5730 5730 5730 5730 5728 5728 5728 5728 5728 5728 5728 5728 5728
5730 5730 5731 5732 5732 5731 5730 5728 5727 5726 5725 5725 5724 5724 5724 5723 5723 5721 5721 5720 5720 5719 5719 5720 5720 5721 5722 5723 5723 5724 5724 5724 5724 5723 5722 5721 5722 5723 5723 5723 5723 5723 5723
5727 5727 5728 5728 5729 5728 5726 5725 5725 5723 5722 5722 5720 5720 5720 5719 5718 5717 5716 5715 5715 5715 5715 5715 5716 5716 5717 5716 5717 5717 5718 5718 5718 5718 5717 5716 5716 5717 5717 5718 5718 5718 5718
5725 5726 5725 5725 5725 5724 5724 5723 5721 5720 5718 5718 5717 5717 5717 5715 5714 5712 5711 5710 5710 5709 5709 5710 5710 5710 5711 5710 5710 5711 5712 5712 5713 5713 5712 5711 5710 5711 5711 5712 5712 5712 5712
5725 5724 5723 5722 5722 5721 5721 5719 5718 5716 5715 5715 5713 5714 5713 5711 5710 5708 5707 5705 5704 5704 5705 5705 5705 5705 5705 5704 5704 5705 5705 5706 5706 5707 5706 5706 5706 5705 5705 5706 5706 5706 5706
5723 5722 5721 5719 5719 5718 5717 5715 5714 5713 5712 5711 5710 5709 5709 5708 5706 5704 5702 5701 5700 5699 5699 5699 5699 5699 5699 5699 5699 5699 5700 5700 5701 5701 5701 5701 5701 5701 5699 5699 5700 5699 5700
5721 5720 5718 5717 5716 5715 5713 5712 5710 5709 5707 5707 5706 5705 5704 5704 5703 5701 5699 5697 5696 5695 5694 5694 5693 5694 5693 5693 5693 5694 5695 5695 5695 5696 5696 5696 5695 5695 5695 5693 5693 5693 5693
5719 5718 5716 5714 5713 5712 5710 5709 5707 5705 5704 5703 5702 5701 5700 5700 5699 5697 5695 5694 5692 5691 5689 5689 5688 5688 5688 5688 5690 5689 5690 5690 5690 5691 5691 5690 5690 5690 5690 5689 5689 5688 5687
5715 5715 5713 5712 5710 5708 5706 5704 5702 5701 5701 5699 5698 5697 5696 5696 5695 5694 5693 5691 5688 5687 5686 5686 5684 5684 5684 5685 5685 5684 5686 5687 5686 5685 5685 5685 5685 5684 5684 5684 5685 5685 5685
5712 5711 5710 5709 5707 5705 5703 5702 5700 5699 5698 5696 5694 5693 5692 5692 5691 5690 5689 5687 5684 5682 5682 5681 5680 5680 5680 5681 5680 5679 5678 5679 5680 5681 5680 5680 5680 5679 5680 5679 5680 5680 5680
5709 5708 5707 5705 5703 5701 5700 5699 5696 5695 5694 5692 5690 5689 5688 5688 5687 5685 5685 5683 5681 5680 5679 5677 5676 5675 5675 5676 5678 5676 5674 5672 5674 5676 5676 5676 5675 5675 5675 5674 5674 5674 5675
5706 5706 5705 5702 5701 5699 5697 5694 5692 5690 5688 5688 5688 5686 5685 5684 5682 5681 5681 5679 5678 5677 5675 5674 5674 5673 5671 5671 5672 5672 5673 5672 5670 5668 5671 5672 5672 5671 5670 5670 5669 5669 5670
5704 5701 5701 5699 5697 5695 5693 5690 5688 5688 5686 5685 5684 5683 5682 5680 5679 5677 5676 5675 5675 5674 5673 5671 5670 5670 5669 5668 5668 5668 5668 5667 5670 5667 5664 5666 5667 5667 5666 5666 5665 5665 5664
5700 5697 5695 5694 5692 5690 5688 5687 5685 5684 5681 5680 5678 5678 5677 5676 5674 5674 5672 5671 5670 5670 5669 5668 5666 5666 5666 5664 5664 5665 5664 5664 5664 5664 5662 5662 5662 5662 5662 5661 5661 5660 5660